EHI
0 0 1 1 1 0 0 0 0 0 0 0 0 0 0 0 1 2 3 3 3 7 14 20 19 15 12 11 9 8 9 10 12 14 16 14 11 9 7 5 5 5 4 3 2 3 4 4 3
0 0 2 2 1 0 0 0 0 0 0 0 0 0 0 0 1 2 3 3 3 6 12 18 19 15 12 11 9 8 8 9 11 14 18 17 13 9 7 6 5 4 3 3 2 3 4 4 3
0 0 1 1 0 0 0 0 0 0 0 0 0 0 0 1 2 3 3 3 3 5 10 17 18 15 11 9 8 7 7 8 10 13 17 17 14 10 8 7 5 4 4 4 4 4 4 4 4
0 0 0 0 0 0 0 0 0 0 0 0 0 0 1 2 4 4 4 3 3 5 10 16 19 16 11 9 8 8 7 7 8 10 12 13 12 10 8 7 6 5 5 5 6 5 5 6 6
0 0 0 0 0 0 0 0 0 0 0 0 0 1 3 5 6 5 4 3 4 6 9 15 18 16 13 10 10 9 9 8 7 7 7 8 9 9 8 7 6 5 5 5 6 6 6 6 6
0 0 0 0 0 0 0 0 0 0 0 0 1 3 6 8 7 6 4 4 5 6 8 12 14 14 13 12 12 10 9 7 6 5 5 6 7 6 6 6 5 5 5 6 6 6 6 6 6
0 0 0 0 0 0 0 0 0 0 1 1 1 3 8 11 11 8 6 5 6 6 7 8 10 11 11 12 12 10 8 7 6 6 5 5 5 5 5 6 6 6 6 6 6 6 6 6 6
0 0 0 0 0 0 0 0 1 1 2 2 2 3 9 16 17 13 9 7 7 7 6 6 7 9 9 10 10 10 10 9 8 6 5 4 3 3 4 5 5 6 6 6 6 6 6 6 6
0 0 0 0 0 0 0 0 1 2 3 3 3 5 13 22 23 17 12 10 9 7 6 5 6 7 7 7 9 11 10 8 6 4 3 2 1 1 2 4 6 6 5 5 5 5 5 6 6
0 0 0 0 0 0 0 0 1 3 3 3 4 9 18 27 26 19 14 13 11 8 6 5 5 6 6 6 9 9 6 4 2 2 2 2 1 0 2 6 8 8 8 7 6 6 5 4 4
0 0 0 0 0 0 0 0 1 3 3 3 5 13 23 27 25 18 13 12 11 7 5 4 4 5 6 7 9 9 6 4 3 3 4 4 2 0 2 5 7 9 10 10 9 7 5 3 1
0 0 0 1 1 1 1 1 3 4 4 4 7 14 23 26 22 16 12 12 11 8 5 3 5 6 7 8 10 10 10 7 6 6 6 5 4 1 1 3 5 8 9 10 10 8 6 3 1
0 0 1 2 2 2 1 1 4 5 5 6 9 14 20 23 22 18 14 13 12 10 6 4 6 9 9 10 10 11 10 8 7 7 5 4 4 4 4 5 7 7 8 8 8 8 6 4 2
0 0 1 3 3 3 2 2 4 6 6 7 10 13 17 21 22 20 17 16 14 10 7 5 8 11 13 12 11 10 8 7 6 6 4 3 4 6 9 10 10 10 8 7 7 7 5 4 4
0 0 2 3 3 3 3 3 4 5 5 6 8 12 15 19 21 21 20 17 14 11 9 9 10 13 16 16 14 12 9 7 5 4 3 3 5 8 12 13 13 12 9 8 8 7 5 4 4
0 0 1 3 3 3 3 3 4 4 4 5 7 11 14 17 21 23 21 18 15 13 14 13 13 15 18 20 20 17 13 9 6 4 4 4 6 10 12 14 14 13 9 9 9 7 5 4 3
0 0 1 2 3 3 3 4 5 5 5 6 8 10 12 15 20 23 22 20 17 16 18 18 17 16 18 21 24 21 16 12 9 7 6 7 8 10 11 11 13 11 8 7 8 7 5 4 4
0 0 0 1 3 3 3 4 6 6 6 7 9 10 11 13 17 21 22 22 20 19 21 21 20 18 17 19 22 21 17 14 11 9 10 11 11 10 9 9 10 9 7 6 6 6 5 5 5
0 0 0 1 3 3 4 5 6 7 7 7 9 10 11 12 16 19 21 23 24 25 27 27 25 23 21 20 22 21 19 17 14 12 13 14 13 11 10 9 9 9 8 7 7 6 6 6 6
0 0 1 2 3 3 4 5 6 6 7 7 8 10 12 13 16 20 22 23 25 28 31 33 31 28 26 25 25 24 24 23 20 18 18 18 15 13 11 10 10 11 11 11 10 8 7 6 6
0 0 1 2 3 3 3 4 5 5 6 7 9 11 12 13 17 21 23 24 25 26 30 32 32 29 27 27 28 29 29 28 25 22 22 22 18 13 11 10 11 11 11 12 12 10 8 7 7
1 0 1 3 3 3 3 3 3 4 5 7 10 12 12 13 15 19 21 22 22 22 25 30 32 29 26 25 26 29 30 27 24 23 23 23 19 13 11 11 10 10 9 9 10 10 10 9 8
2 2 2 2 2 2 2 2 3 3 4 6 9 11 10 11 13 14 15 15 17 18 22 29 32 30 26 24 25 27 26 23 21 22 23 22 18 13 10 9 9 8 8 8 9 10 12 12 10
2 2 2 1 1 0 1 1 2 4 5 6 7 9 9 9 11 13 13 13 15 16 17 24 31 32 30 27 27 27 25 23 22 22 21 20 17 14 11 9 9 9 10 10 10 11 12 13 13
1 1 1 0 0 0 0 0 1 4 5 6 6 7 9 9 10 12 14 15 16 15 15 21 29 32 32 31 30 28 27 26 23 20 19 19 18 17 15 13 13 13 12 12 12 13 13 13 14
0 0 0 0 0 0 0 0 1 3 5 6 7 7 8 9 10 11 13 15 15 15 16 21 26 31 34 35 34 31 29 27 24 21 19 18 19 20 18 17 17 16 13 12 13 14 13 12 12
0 0 0 0 0 0 0 0 1 2 4 5 8 10 11 12 12 12 12 14 14 16 18 22 26 32 36 37 37 34 31 28 25 22 20 19 20 20 18 16 16 15 13 11 13 14 12 11 11
0 0 0 0 0 0 0 0 0 1 3 4 8 12 16 17 17 15 13 14 15 17 20 24 27 31 34 35 34 33 32 31 27 23 22 21 20 19 16 13 12 12 11 10 10 11 11 10 11
0 0 0 0 0 0 0 1 1 2 2 3 6 11 17 20 20 18 15 14 16 19 23 27 28 28 28 28 28 28 29 30 28 26 24 23 19 17 14 11 9 9 8 8 8 8 9 10 10
0 0 0 0 0 0 1 2 3 3 2 2 5 10 15 19 20 19 16 15 17 20 25 28 29 27 24 24 24 25 26 29 29 28 26 22 18 16 14 10 8 7 6 6 6 7 8 10 9
Wind_Speed
10 9 7 6 8 1 8 8 6 5 6 5 5 4 5 7 8 8 7 9 9 10 12 12 8 7 6 6 5 5 5 6 6 7 7 7 7 7 7 7 7 7 7 7 7 7 8 8 8
7 6 7 8 3 4 8 7 6 7 6 4 4 3 4 7 7 7 8 9 9 9 10 10 9 7 6 6 6 5 6 6 6 6 6 7 7 7 7 7 7 6 6 7 7 8 8 9 9
6 7 7 4 3 6 8 7 6 6 5 2 4 4 5 7 6 6 8 11 10 9 9 12 9 7 6 6 6 5 5 6 5 5 6 6 7 7 6 6 6 6 6 6 7 7 8 8 8
6 7 7 2 5 7 6 5 4 5 5 3 3 6 6 6 4 7 11 11 10 9 9 13 8 7 6 6 5 5 5 5 6 5 5 5 6 6 6 6 6 5 5 6 6 6 7 7 7
7 6 4 2 5 6 4 3 2 2 4 4 2 6 8 6 7 10 11 10 9 9 9 12 8 7 6 6 5 5 5 5 5 5 5 5 5 5 6 5 5 5 5 5 5 6 6 7 6
6 6 3 1 4 4 4 2 1 2 4 4 3 5 8 7 8 9 10 9 8 8 9 11 10 7 7 6 5 5 5 5 5 5 5 5 5 5 5 5 5 4 4 4 4 5 5 6 5
7 4 2 1 2 4 4 2 1 1 3 4 2 4 8 8 8 9 9 9 8 8 8 8 10 10 9 7 5 5 5 5 5 5 4 4 5 4 5 5 4 4 4 4 4 4 4 5 5
6 5 4 1 0 4 4 1 1 1 3 5 1 2 6 10 10 10 9 8 8 7 7 6 7 7 8 9 8 5 5 5 4 4 3 4 5 6 6 5 5 4 4 4 4 4 4 4 4
7 7 3 0 1 3 2 0 2 1 4 4 2 4 7 13 13 11 9 8 8 7 6 6 6 6 5 6 8 7 7 5 5 5 5 4 4 5 6 5 5 5 4 4 4 4 4 4 6
7 6 1 2 3 3 2 2 1 3 4 4 5 7 10 13 13 12 10 9 9 8 7 6 5 5 5 4 5 4 4 5 3 2 3 2 2 2 2 7 5 5 4 4 5 5 6 6 4
6 5 1 1 3 4 3 2 1 4 2 1 3 8 12 13 12 11 10 9 8 8 7 6 5 4 3 3 3 2 2 3 3 2 1 1 2 2 2 2 4 5 5 3 5 6 2 2 1
6 4 3 3 3 4 4 2 2 3 2 2 2 8 12 13 12 11 10 9 8 8 7 6 6 5 3 2 2 2 2 2 2 2 1 1 1 1 1 1 1 2 1 1 1 1 2 2 2
8 5 3 4 5 4 4 3 2 1 2 2 5 9 11 11 10 9 8 8 8 8 7 7 5 5 4 3 2 2 2 2 3 2 2 1 1 1 2 1 1 1 2 2 1 1 2 1 2
4 4 5 4 4 3 4 3 3 1 2 4 7 8 10 10 9 9 8 8 8 7 7 6 6 6 5 4 3 2 2 2 2 2 2 1 1 1 1 1 1 1 1 1 1 1 1 1 1
5 7 7 4 4 3 4 5 2 1 4 5 7 7 8 8 8 8 9 8 8 8 7 6 7 6 6 5 4 3 2 2 2 2 2 1 1 1 1 1 1 1 1 2 1 1 1 1 2
9 10 9 5 3 3 7 5 3 2 4 5 5 7 7 8 8 8 8 7 8 8 7 6 5 7 6 4 3 2 2 2 2 2 2 1 1 1 1 1 1 1 1 1 1 1 1 1 1
11 10 8 5 3 3 6 3 2 1 4 4 5 6 7 7 8 8 8 8 8 8 7 7 6 6 5 5 4 3 2 2 1 1 1 1 1 1 1 0 1 1 1 1 1 2 0 1 1
8 9 8 6 4 4 6 4 1 2 3 4 4 5 6 7 7 8 8 8 7 8 8 7 7 6 5 5 4 2 2 2 2 1 1 1 1 0 1 1 1 1 1 1 1 1 1 1 1
6 8 8 5 3 5 6 4 2 2 3 3 4 4 6 6 7 7 8 8 8 8 8 8 7 7 5 4 4 4 4 3 2 2 2 1 0 0 1 1 1 1 1 1 2 2 2 1 1
9 10 8 5 4 5 6 6 4 3 3 3 3 4 4 6 6 7 7 8 8 8 8 8 8 7 6 4 3 3 2 2 2 1 2 1 1 1 1 0 1 1 1 1 1 2 1 1 1
10 10 8 5 4 7 7 8 7 5 4 3 3 3 3 4 6 7 7 8 8 9 9 7 7 7 6 6 5 4 3 2 3 3 2 1 1 0 1 1 1 1 1 1 2 2 3 2 1
9 7 7 7 9 7 9 8 7 6 5 4 3 3 3 4 5 7 8 8 8 8 8 7 7 7 7 7 6 6 5 4 3 2 2 2 2 1 1 1 1 2 1 1 2 2 2 3 2
5 4 7 9 10 9 9 11 5 7 6 5 3 2 2 3 4 6 8 8 8 8 8 8 7 7 7 7 6 6 5 4 3 2 2 2 2 2 1 1 1 2 2 2 2 2 3 2 2
5 6 8 10 11 12 9 10 5 4 4 4 3 2 1 2 3 4 6 7 7 7 7 7 7 7 7 7 7 7 6 4 4 3 3 3 2 2 2 2 2 2 1 1 2 2 3 2 2
9 9 8 9 9 8 5 8 3 1 1 2 1 1 1 1 2 4 5 6 6 6 7 7 8 7 7 8 7 7 7 6 5 4 4 4 3 2 2 2 2 1 1 1 2 2 2 3 3
8 11 9 8 8 5 6 7 2 2 2 1 1 1 1 1 1 2 3 5 6 6 6 7 7 7 7 7 7 6 6 5 4 4 4 4 2 2 2 2 2 2 2 2 2 2 2 2 3
8 9 7 9 10 9 6 4 4 4 3 2 2 1 1 1 0 1 2 4 5 6 6 7 7 7 7 7 6 6 6 5 4 4 4 3 2 3 3 3 2 2 2 2 3 1 2 1 2
6 6 6 9 9 10 8 8 4 5 4 3 1 1 1 0 0 0 2 3 4 5 6 6 6 7 7 7 6 5 5 5 4 4 3 2 3 2 3 3 3 3 3 2 2 2 1 2 2
7 8 8 8 8 9 8 2 3 1 2 2 1 0 1 1 1 1 1 2 4 4 5 6 6 6 5 5 5 4 4 4 4 4 4 3 3 3 3 3 3 2 3 2 2 2 2 2 2
6 7 8 8 8 9 9 1 4 2 0 1 1 0 1 1 1 1 0 1 3 3 4 5 5 5 5 5 5 5 4 4 4 4 3 3 3 3 3 3 3 3 3 2 3 3 2 2 2
Wind_Direction
180 189 217 236 235 137 63 61 47 53 64 57 49 30 28 26 17 58 96 123 127 130 128 136 130 133 132 126 118 113 113 117 119 126 132 133 131 129 126 124 124 122 123 124 122 126 133 136 136
188 202 231 242 271 70 69 54 55 53 75 96 89 77 64 66 56 92 121 127 137 130 131 128 126 133 133 128 122 118 113 115 120 122 129 130 130 129 128 126 128 126 126 127 122 120 127 130 133
206 234 260 255 38 42 58 54 64 87 106 105 91 62 47 65 86 106 120 138 139 132 128 117 134 135 136 132 128 123 118 115 117 121 123 128 129 128 128 128 131 130 131 130 130 130 129 131 131
234 229 238 257 68 54 39 52 79 120 122 96 98 97 82 62 86 112 130 144 140 133 129 121 139 136 136 132 128 125 117 115 114 119 124 126 127 128 130 134 132 130 130 127 129 129 133 134 133
243 257 237 118 72 62 53 48 94 109 102 103 98 97 96 85 99 122 139 145 141 134 131 124 133 137 136 135 130 120 114 113 113 117 124 127 126 128 131 131 128 126 125 125 130 129 133 133 135
247 251 251 103 80 69 70 67 139 96 96 111 114 107 98 113 127 136 141 146 138 137 134 128 141 140 140 138 130 121 115 114 115 116 118 119 123 125 126 129 130 130 127 124 132 133 133 133 133
273 272 281 349 83 86 59 42 340 43 92 94 109 111 116 131 133 140 143 144 141 141 138 141 148 151 154 146 135 127 120 116 115 113 117 128 131 132 136 137 140 140 135 135 136 130 131 130 125
283 266 233 216 59 73 67 69 25 335 79 90 128 110 127 144 146 148 150 149 145 145 145 147 150 149 158 150 140 137 128 125 123 120 126 142 149 147 152 157 143 140 147 152 143 136 136 132 129
256 250 236 343 338 52 61 65 91 73 124 127 94 53 97 139 152 157 155 155 150 151 152 154 154 154 158 141 139 156 152 149 166 159 164 190 170 154 159 128 131 150 163 162 154 149 151 160 155
243 251 290 15 340 344 334 308 156 184 168 149 132 113 127 149 160 166 165 164 162 162 163 160 159 158 158 145 144 161 156 146 170 140 159 165 127 120 117 118 145 163 171 174 172 174 189 205 168
241 264 332 297 314 313 296 294 254 232 215 167 156 150 155 165 171 175 171 168 163 161 164 163 159 159 159 155 150 144 138 134 150 136 149 118 129 138 140 139 153 162 177 169 164 189 183 143 117
239 254 279 291 307 285 288 279 254 262 337 24 153 157 163 175 179 180 175 167 164 167 168 163 164 163 171 155 150 159 155 144 138 131 176 146 133 109 97 104 109 141 122 118 127 117 102 113 115
231 237 245 267 271 275 265 243 251 264 7 102 142 159 170 179 181 180 176 169 171 174 172 168 170 163 165 172 198 162 151 138 126 127 116 138 145 113 97 103 113 115 119 151 131 86 91 109 129
236 243 245 253 253 226 232 225 224 227 139 147 158 167 173 177 180 175 177 177 178 179 179 169 179 174 178 181 186 169 161 148 150 137 112 132 104 90 117 131 128 117 112 79 90 99 118 103 93
237 238 228 224 230 212 231 215 217 128 164 166 168 171 170 174 178 181 183 183 182 180 180 178 183 178 183 188 189 177 166 163 155 127 126 149 131 119 156 132 155 120 115 118 135 133 136 151 142
221 229 222 181 204 200 241 225 101 132 184 181 173 173 173 174 182 182 184 187 180 176 174 181 185 177 181 188 191 181 170 164 157 152 143 148 97 132 213 163 131 128 142 145 141 162 127 123 158
215 229 226 186 181 214 240 239 105 166 206 194 180 179 179 178 186 183 184 185 181 177 175 178 183 180 178 177 183 183 162 171 165 153 141 116 150 185 228 116 80 172 152 144 160 114 126 145 147
218 231 228 222 180 224 233 232 184 171 206 200 184 182 184 186 188 183 182 180 178 177 178 179 181 180 180 178 175 181 171 172 166 134 100 103 112 182 264 173 157 215 166 153 137 139 158 214 222
259 249 240 227 194 230 231 232 227 179 197 191 183 186 188 187 180 176 179 179 176 177 178 180 185 176 183 184 188 183 177 176 165 150 119 123 100 129 272 274 142 216 172 178 182 190 178 204 223
241 243 237 211 190 238 234 235 220 187 191 194 188 186 190 183 175 175 179 182 182 180 181 181 184 181 189 176 181 181 173 180 161 152 128 147 168 264 221 257 203 178 167 177 195 205 230 229 234
233 246 247 232 212 217 232 228 207 184 184 184 191 194 191 189 186 180 183 186 186 185 186 187 185 183 190 176 174 169 162 185 175 170 161 153 154 250 335 294 267 229 223 193 202 203 217 228 224
236 239 249 236 232 223 229 246 195 189 187 192 197 202 198 199 193 185 184 186 188 186 182 179 180 185 186 188 191 187 186 193 186 178 153 161 172 184 219 251 240 242 230 210 223 202 222 242 236
259 243 241 242 244 248 225 251 199 185 203 204 196 200 200 207 198 189 188 187 187 184 179 175 178 186 189 196 194 199 204 201 190 180 155 187 170 193 215 228 243 235 236 230 246 231 242 241 250
235 222 224 234 239 240 237 249 225 190 212 206 186 184 200 200 190 191 189 182 180 177 179 175 178 187 191 196 197 202 205 205 195 188 182 201 185 188 202 223 229 235 234 231 238 236 227 255 266
222 232 228 224 226 235 202 241 235 134 187 223 219 186 169 187 184 186 184 179 177 176 180 178 181 188 192 197 200 204 207 202 201 207 205 213 200 187 187 217 222 225 215 233 239 239 257 243 243
225 245 254 259 254 239 207 236 173 117 135 173 186 189 151 161 175 174 180 184 184 182 182 183 183 184 188 195 199 204 208 211 209 213 220 218 216 198 187 205 211 222 230 222 222 237 235 241 247
229 238 268 271 265 260 232 205 181 173 176 175 168 155 123 105 151 173 187 191 192 186 184 187 186 184 189 191 189 192 201 214 208 204 217 215 208 201 195 203 209 217 225 232 229 233 256 244 241
262 245 243 254 261 259 242 228 213 190 197 189 191 133 63 7 317 191 197 197 194 189 185 185 186 189 192 191 192 189 192 201 203 208 210 211 208 216 212 217 215 220 219 223 240 228 221 237 242
218 223 243 256 268 271 265 236 63 148 213 227 214 42 27 338 322 280 218 195 187 186 184 182 185 188 192 196 193 192 186 191 197 200 198 196 195 195 205 214 209 214 216 212 223 243 232 235 235
248 247 242 250 248 255 272 256 83 89 204 235 222 343 13 353 346 332 229 183 176 180 183 183 185 187 186 189 187 184 180 180 183 184 185 184 190 202 199 206 207 216 214 209 214 225 229 231 232